Location: Baumgarten
(49.0970°N, 12.7493°E)
Time: 19:04:53
(UTC+00:00)

Alouette 2 Rocket - Pass Details

Date: 05 July 2020
Orbit: 502 x 2650 km, 79.8° (Epoch: 12 August)

Event Time Altitude Azimuth Distance (km) Brightness Sun altitude
Rises 19:54:58 0° 350° (N) 2,626 7.8 -5.7°
Reaches altitude 10° 19:56:56 10° 355° (N) 1,784 6.8 -5.9°
Maximum altitude 20:00:37 55° 74° (ENE) 734 3.8 -6.3°
Drops below altitude 10° 20:05:25 10° 153° (SSE) 2,320 5.9 -6.9°
Enters shadow 20:06:10 - 155° (SSE) 2,639 6.2 -7.0°
